date,time,SUV Intensity [MED/Hr],UV Index,Daily total [MED],Since Last [MED]
10/07/2022,00:10:21,0.000,0.0,0.0,0.0
10/07/2022,00:11:13,0.000,0.0,0.0,0.0
10/07/2022,00:12:12,0.000,0.0,0.0,0.0
10/07/2022,00:13:13,-0.000,0.0,0.0,0.0
10/07/2022,00:14:13,0.000,0.0,0.0,0.0
10/07/2022,00:15:12,0.000,0.0,0.0,0.0
10/07/2022,00:16:13,0.000,0.0,0.0,0.0
10/07/2022,00:17:13,0.000,0.0,0.0,0.0
10/07/2022,00:18:13,0.000,0.0,0.0,0.0
10/07/2022,00:19:12,0.000,0.0,0.0,0.0
10/07/2022,00:20:13,0.000,0.0,0.0,0.0
10/07/2022,00:21:13,-0.000,0.0,0.0,0.0
10/07/2022,00:22:13,0.000,0.0,0.0,0.0
10/07/2022,00:23:13,0.000,0.0,0.0,0.0
10/07/2022,00:24:12,0.000,0.0,0.0,0.0
10/07/2022,00:25:12,-0.000,0.0,0.0,0.0
10/07/2022,00:26:13,0.000,0.0,0.0,0.0
10/07/2022,00:27:13,0.000,0.0,0.0,0.0
10/07/2022,00:28:13,0.000,0.0,0.0,0.0
10/07/2022,00:29:14,0.000,0.0,0.0,0.0
10/07/2022,00:30:13,0.000,0.0,0.0,0.0
10/07/2022,00:31:21,0.000,0.0,0.0,0.0
10/07/2022,00:32:12,-0.000,0.0,0.0,0.0
10/07/2022,00:33:14,-0.000,0.0,0.0,0.0
10/07/2022,00:34:21,-0.000,0.0,0.0,0.0
10/07/2022,00:35:13,0.000,0.0,0.0,0.0
10/07/2022,00:36:12,-0.000,0.0,0.0,0.0
10/07/2022,00:37:21,0.001,0.0,0.0,0.0
10/07/2022,00:38:13,0.000,0.0,0.0,0.0
10/07/2022,00:39:13,-0.000,0.0,0.0,0.0
10/07/2022,00:40:13,0.000,0.0,0.0,0.0
10/07/2022,00:41:12,0.000,0.0,0.0,0.0
10/07/2022,00:42:13,0.000,0.0,0.0,0.0
10/07/2022,00:43:13,0.001,0.0,0.0,0.0
10/07/2022,00:44:12,0.000,0.0,0.0,0.0
10/07/2022,00:45:13,0.001,0.0,0.0,0.0
10/07/2022,00:46:13,0.000,0.0,0.0,0.0
10/07/2022,00:47:13,0.000,0.0,0.0,0.0
10/07/2022,00:48:13,-0.000,0.0,0.0,0.0
10/07/2022,00:49:13,0.000,0.0,0.0,0.0
10/07/2022,00:50:12,0.000,0.0,0.0,0.0
10/07/2022,00:51:14,0.000,0.0,0.0,0.0
10/07/2022,00:52:12,0.000,0.0,0.0,0.0
10/07/2022,00:53:13,0.001,0.0,0.0,0.0
10/07/2022,00:54:12,-0.000,0.0,0.0,0.0
10/07/2022,00:55:13,0.000,0.0,0.0,0.0
10/07/2022,00:56:13,0.000,0.0,0.0,0.0
10/07/2022,00:57:13,-0.000,0.0,0.0,0.0
10/07/2022,00:58:12,0.000,0.0,0.0,0.0
10/07/2022,00:59:13,0.001,0.0,0.0,0.0
10/07/2022,01:00:21,-0.000,0.0,0.0,0.0
10/07/2022,01:01:12,0.001,0.0,0.0,0.0
10/07/2022,01:02:14,0.001,0.0,0.0,0.0
10/07/2022,01:03:13,0.000,0.0,0.0,0.0
10/07/2022,01:04:13,0.001,0.0,0.0,0.0
10/07/2022,01:05:13,0.000,0.0,0.0,0.0
10/07/2022,01:06:21,-0.000,0.0,0.0,0.0
10/07/2022,01:07:12,0.001,0.0,0.0,0.0
10/07/2022,01:08:13,-0.000,0.0,0.0,0.0
10/07/2022,01:09:13,0.000,0.0,0.0,0.0
10/07/2022,01:10:13,0.000,0.0,0.0,0.0
10/07/2022,01:11:13,0.001,0.0,0.0,0.0
10/07/2022,01:12:21,0.000,0.0,0.0,0.0
10/07/2022,01:13:13,0.001,0.0,0.0,0.0
10/07/2022,01:14:12,0.001,0.0,0.0,0.0
10/07/2022,01:15:21,0.000,0.0,0.0,0.0
10/07/2022,01:17:14,0.001,0.0,0.0,0.0
10/07/2022,01:18:13,0.001,0.0,0.0,0.0
10/07/2022,01:19:13,0.000,0.0,0.0,0.0
10/07/2022,01:20:13,-0.000,0.0,0.0,0.0
10/07/2022,01:21:12,0.000,0.0,0.0,0.0
10/07/2022,01:22:12,0.000,0.0,0.0,0.0
10/07/2022,01:23:12,0.001,0.0,0.0,0.0
10/07/2022,01:24:13,-0.000,0.0,0.0,0.0
10/07/2022,01:25:13,0.000,0.0,0.0,0.0
10/07/2022,01:26:13,0.000,0.0,0.0,0.0
10/07/2022,01:27:13,0.000,0.0,0.0,0.0
10/07/2022,01:28:13,0.000,0.0,0.0,0.0
10/07/2022,01:29:12,0.000,0.0,0.0,0.0
10/07/2022,01:30:13,0.001,0.0,0.0,0.0
10/07/2022,01:31:14,0.000,0.0,0.0,0.0
10/07/2022,01:32:13,0.001,0.0,0.0,0.0
10/07/2022,01:33:13,0.001,0.0,0.0,0.0
10/07/2022,01:34:13,0.000,0.0,0.0,0.0
10/07/2022,01:35:13,0.001,0.0,0.0,0.0
10/07/2022,01:36:13,0.001,0.0,0.0,0.0
10/07/2022,01:37:12,0.001,0.0,0.0,0.0
10/07/2022,01:38:13,0.000,0.0,0.0,0.0
10/07/2022,01:39:14,-0.000,0.0,0.0,0.0
10/07/2022,01:40:13,0.000,0.0,0.0,0.0
10/07/2022,01:41:30,0.002,0.0,0.0,0.0
10/07/2022,01:43:15,0.001,0.0,0.0,0.0
10/07/2022,01:44:21,0.002,0.0,0.0,0.0
10/07/2022,01:45:13,0.001,0.0,0.0,0.0
10/07/2022,01:46:13,0.000,0.0,0.0,0.0
10/07/2022,01:47:12,-0.000,0.0,0.0,0.0
10/07/2022,01:48:13,0.001,0.0,0.0,0.0
10/07/2022,01:49:13,0.001,0.0,0.0,0.0
10/07/2022,01:50:12,-0.000,0.0,0.0,0.0
10/07/2022,01:51:13,0.001,0.0,0.0,0.0
10/07/2022,01:52:12,0.001,0.0,0.0,0.0
10/07/2022,01:53:13,0.001,0.0,0.0,0.0
10/07/2022,01:54:13,0.001,0.0,0.0,0.0
10/07/2022,01:55:13,0.001,0.0,0.0,0.0
10/07/2022,01:56:13,0.001,0.0,0.0,0.0
10/07/2022,01:57:13,0.001,0.0,0.0,0.0
10/07/2022,01:58:12,0.001,0.0,0.0,0.0
10/07/2022,01:59:12,0.001,0.0,0.0,0.0
10/07/2022,02:00:13,0.000,0.0,0.0,0.0
10/07/2022,02:01:13,0.001,0.0,0.0,0.0
10/07/2022,02:02:13,0.002,0.0,0.0,0.0
10/07/2022,02:03:13,0.000,0.0,0.0,0.0
10/07/2022,02:04:13,0.001,0.0,0.0,0.0
10/07/2022,02:05:13,0.001,0.0,0.0,0.0
10/07/2022,02:06:12,0.001,0.0,0.0,0.0
10/07/2022,02:07:13,0.001,0.0,0.0,0.0
10/07/2022,02:08:22,0.002,0.0,0.0,0.0
10/07/2022,02:09:13,0.001,0.0,0.0,0.0
10/07/2022,02:10:13,0.001,0.0,0.0,0.0
10/07/2022,02:11:13,0.002,0.0,0.0,0.0
10/07/2022,02:12:13,0.001,0.0,0.0,0.0
10/07/2022,02:13:13,0.001,0.0,0.0,0.0
10/07/2022,02:14:13,0.001,0.0,0.0,0.0
10/07/2022,02:15:13,-0.000,0.0,0.0,0.0
10/07/2022,02:16:13,0.001,0.0,0.0,0.0
10/07/2022,02:17:13,0.001,0.0,0.0,0.0
10/07/2022,02:18:12,-0.000,0.0,0.0,0.0
10/07/2022,02:19:13,0.001,0.0,0.0,0.0
10/07/2022,02:20:13,0.000,0.0,0.0,0.0
10/07/2022,02:21:13,0.001,0.0,0.0,0.0
10/07/2022,02:22:13,0.001,0.0,0.0,0.0
10/07/2022,02:23:12,0.000,0.0,0.0,0.0
10/07/2022,02:24:21,0.001,0.0,0.0,0.0
10/07/2022,02:25:12,0.001,0.0,0.0,0.0
10/07/2022,02:26:21,0.001,0.0,0.0,0.0
10/07/2022,02:27:13,0.000,0.0,0.0,0.0
10/07/2022,02:28:13,0.001,0.0,0.0,0.0
10/07/2022,02:29:21,0.000,0.0,0.0,0.0
10/07/2022,02:30:12,0.001,0.0,0.0,0.0
10/07/2022,02:31:14,0.000,0.0,0.0,0.0
10/07/2022,02:32:21,0.001,0.0,0.0,0.0
10/07/2022,02:33:13,0.001,0.0,0.0,0.0
10/07/2022,02:34:13,0.001,0.0,0.0,0.0
10/07/2022,02:35:21,0.001,0.0,0.0,0.0
10/07/2022,02:36:13,0.001,0.0,0.0,0.0
10/07/2022,02:37:13,0.001,0.0,0.0,0.0
10/07/2022,02:38:13,0.001,0.0,0.0,0.0
10/07/2022,02:39:14,0.001,0.0,0.0,0.0
10/07/2022,02:40:13,0.001,0.0,0.0,0.0
10/07/2022,02:41:13,0.001,0.0,0.0,0.0
10/07/2022,02:42:13,0.002,0.0,0.0,0.0
10/07/2022,02:43:13,0.000,0.0,0.0,0.0
10/07/2022,02:44:13,0.001,0.0,0.0,0.0
10/07/2022,02:45:13,0.001,0.0,0.0,0.0
10/07/2022,02:46:13,0.001,0.0,0.0,0.0
10/07/2022,02:47:13,0.001,0.0,0.0,0.0
10/07/2022,02:48:13,0.001,0.0,0.0,0.0
10/07/2022,02:49:13,0.001,0.0,0.0,0.0
10/07/2022,02:50:29,0.001,0.0,0.0,0.0
10/07/2022,02:52:14,0.000,0.0,0.0,0.0
10/07/2022,02:53:21,0.002,0.0,0.0,0.0
10/07/2022,02:54:12,0.001,0.0,0.0,0.0
10/07/2022,02:55:13,0.001,0.0,0.0,0.0
10/07/2022,02:56:12,0.001,0.0,0.0,0.0
10/07/2022,02:57:12,0.001,0.0,0.0,0.0
10/07/2022,02:58:13,0.001,0.0,0.0,0.0
10/07/2022,02:59:13,0.001,0.0,0.0,0.0
10/07/2022,03:00:13,0.001,0.0,0.0,0.0
10/07/2022,03:01:12,0.000,0.0,0.0,0.0
10/07/2022,03:02:13,0.000,0.0,0.0,0.0
10/07/2022,03:03:13,0.001,0.0,0.0,0.0
10/07/2022,03:04:12,0.001,0.0,0.0,0.0
10/07/2022,03:05:28,0.001,0.0,0.0,0.0
10/07/2022,03:07:13,0.002,0.0,0.0,0.0
10/07/2022,03:08:13,0.001,0.0,0.0,0.0
10/07/2022,03:09:13,0.000,0.0,0.0,0.0
10/07/2022,03:10:13,0.000,0.0,0.0,0.0
10/07/2022,03:11:13,0.001,0.0,0.0,0.0
10/07/2022,03:12:13,0.001,0.0,0.0,0.0
10/07/2022,03:13:12,0.001,0.0,0.0,0.0
10/07/2022,03:14:21,0.000,0.0,0.0,0.0
10/07/2022,03:15:12,-0.000,0.0,0.0,0.0
10/07/2022,03:16:13,0.001,0.0,0.0,0.0
10/07/2022,03:17:13,0.001,0.0,0.0,0.0
10/07/2022,03:18:13,0.000,0.0,0.0,0.0
10/07/2022,03:19:13,0.001,0.0,0.0,0.0
10/07/2022,03:20:13,0.001,0.0,0.0,0.0
10/07/2022,03:21:13,0.001,0.0,0.0,0.0
10/07/2022,03:22:13,0.000,0.0,0.0,0.0
10/07/2022,03:23:13,0.001,0.0,0.0,0.0
10/07/2022,03:24:13,0.000,0.0,0.0,0.0
10/07/2022,03:25:13,0.001,0.0,0.0,0.0
10/07/2022,03:26:13,0.001,0.0,0.0,0.0
10/07/2022,03:27:13,0.002,0.0,0.0,0.0
10/07/2022,03:28:14,0.001,0.0,0.0,0.0
10/07/2022,03:29:13,0.001,0.0,0.0,0.0
10/07/2022,03:30:13,0.001,0.0,0.0,0.0
10/07/2022,03:31:13,0.002,0.0,0.0,0.0
10/07/2022,03:32:13,0.001,0.0,0.0,0.0
10/07/2022,03:33:13,0.001,0.0,0.0,0.0
10/07/2022,03:34:12,0.001,0.0,0.0,0.0
10/07/2022,03:35:13,0.000,0.0,0.0,0.0
10/07/2022,03:36:12,0.001,0.0,0.0,0.0
10/07/2022,03:37:13,0.001,0.0,0.0,0.0
10/07/2022,03:38:22,0.000,0.0,0.0,0.0
10/07/2022,03:39:13,0.001,0.0,0.0,0.0
10/07/2022,03:40:13,0.001,0.0,0.0,0.0
10/07/2022,03:41:13,0.001,0.0,0.0,0.0
10/07/2022,03:42:13,0.001,0.0,0.0,0.0
10/07/2022,03:43:13,0.001,0.0,0.0,0.0
10/07/2022,03:44:13,0.001,0.0,0.0,0.0
10/07/2022,03:45:13,0.001,0.0,0.0,0.0
10/07/2022,03:46:13,0.001,0.0,0.0,0.0
10/07/2022,03:47:13,0.002,0.0,0.0,0.0
10/07/2022,03:48:13,0.002,0.0,0.0,0.0
10/07/2022,03:49:13,0.002,0.0,0.0,0.0
10/07/2022,03:50:13,0.002,0.0,0.0,0.0
10/07/2022,03:51:13,0.001,0.0,0.0,0.0
10/07/2022,03:52:13,0.003,0.0,0.0,0.0
10/07/2022,03:53:21,0.002,0.0,0.0,0.0
10/07/2022,03:55:14,0.001,0.0,0.0,0.0
10/07/2022,03:56:13,0.002,0.0,0.0,0.0
10/07/2022,03:57:13,0.002,0.0,0.0,0.0
10/07/2022,03:58:14,0.002,0.0,0.0,0.0
10/07/2022,03:59:21,0.001,0.0,0.0,0.0
10/07/2022,04:00:13,0.002,0.0,0.0,0.0
10/07/2022,04:01:13,0.002,0.0,0.0,0.0
10/07/2022,04:02:20,0.002,0.0,0.0,0.0
10/07/2022,04:03:13,0.003,0.0,0.0,0.0
10/07/2022,04:04:13,0.003,0.0,0.0,0.0
10/07/2022,04:05:13,0.002,0.0,0.0,0.0
10/07/2022,04:06:13,0.003,0.0,0.0,0.0
10/07/2022,04:07:13,0.003,0.0,0.0,0.0
10/07/2022,04:08:13,0.003,0.0,0.0,0.0
10/07/2022,04:09:04,0.004,0.0,0.0,0.0
10/07/2022,04:10:14,0.004,0.0,0.0,0.0
10/07/2022,04:11:21,0.004,0.0,0.0,0.0
10/07/2022,04:12:13,0.004,0.0,0.0,0.0
10/07/2022,04:13:13,0.004,0.0,0.0,0.0
10/07/2022,04:14:21,0.004,0.0,0.0,0.0
10/07/2022,04:15:12,0.005,0.0,0.0,0.0
10/07/2022,04:16:13,0.005,0.0,0.0,0.0
10/07/2022,04:17:13,0.005,0.0,0.0,0.0
10/07/2022,04:18:13,0.005,0.0,0.0,0.0
10/07/2022,04:19:13,0.005,0.0,0.0,0.0
10/07/2022,04:20:13,0.006,0.0,0.0,0.0
10/07/2022,04:21:13,0.006,0.0,0.0,0.0
10/07/2022,04:22:13,0.006,0.0,0.0,0.0
10/07/2022,04:23:14,0.006,0.0,0.0,0.0
10/07/2022,04:24:21,0.007,0.0,0.0,0.0
10/07/2022,04:26:14,0.007,0.0,0.0,0.0
10/07/2022,04:27:13,0.007,0.0,0.001,0.001
10/07/2022,04:28:13,0.007,0.0,0.001,0.0
10/07/2022,04:29:14,0.008,0.0,0.001,0.0
10/07/2022,04:30:13,0.008,0.0,0.001,0.0
10/07/2022,04:31:13,0.009,0.0,0.001,0.0
10/07/2022,04:32:21,0.009,0.0,0.001,0.0
10/07/2022,04:33:13,0.010,0.0,0.001,0.0
10/07/2022,04:34:13,0.010,0.0,0.002,0.001
10/07/2022,04:35:13,0.010,0.0,0.002,0.0
10/07/2022,04:36:13,0.010,0.0,0.002,0.0
10/07/2022,04:37:13,0.012,0.0,0.002,0.0
10/07/2022,04:38:13,0.011,0.0,0.002,0.0
10/07/2022,04:39:14,0.011,0.0,0.002,0.0
10/07/2022,04:40:13,0.012,0.0,0.003,0.001
10/07/2022,04:41:13,0.012,0.0,0.003,0.0
10/07/2022,04:42:13,0.013,0.0,0.003,0.0
10/07/2022,04:43:13,0.013,0.0,0.003,0.0
10/07/2022,04:44:13,0.013,0.0,0.003,0.0
10/07/2022,04:45:21,0.014,0.0,0.004,0.001
10/07/2022,04:46:13,0.016,0.0,0.004,0.0
10/07/2022,04:47:26,0.015,0.0,0.004,0.0
10/07/2022,04:49:14,0.016,0.0,0.005,0.001
10/07/2022,04:50:21,0.017,0.0,0.005,0.0
10/07/2022,04:51:21,0.017,0.0,0.005,0.0
10/07/2022,04:52:14,0.018,0.0,0.006,0.001
10/07/2022,04:53:13,0.018,0.0,0.006,0.0
10/07/2022,04:54:13,0.019,0.0,0.006,0.0
10/07/2022,04:55:13,0.019,0.0,0.006,0.0
10/07/2022,04:56:13,0.020,0.0,0.007,0.001
10/07/2022,04:57:13,0.022,0.0,0.007,0.0
10/07/2022,04:58:13,0.021,0.0,0.007,0.0
10/07/2022,04:59:13,0.022,0.0,0.008,0.001
10/07/2022,05:00:14,0.023,0.0,0.008,0.0
10/07/2022,05:01:13,0.024,0.0,0.009,0.001
10/07/2022,05:02:13,0.024,0.0,0.009,0.0
10/07/2022,05:03:13,0.025,0.0,0.009,0.0
10/07/2022,05:04:13,0.025,0.0,0.01,0.001
10/07/2022,05:05:13,0.026,0.0,0.01,0.0
10/07/2022,05:06:14,0.028,0.0,0.011,0.001
10/07/2022,05:07:14,0.027,0.0,0.011,0.0
10/07/2022,05:08:13,0.029,0.0,0.012,0.001
10/07/2022,05:09:22,0.030,0.0,0.012,0.0
10/07/2022,05:10:13,0.031,0.0,0.013,0.001
10/07/2022,05:11:13,0.032,0.0,0.013,0.0
10/07/2022,05:12:14,0.033,0.0,0.014,0.001
10/07/2022,05:13:13,0.034,0.0,0.014,0.0
10/07/2022,05:14:14,0.035,0.0,0.015,0.001
10/07/2022,05:15:13,0.035,0.0,0.015,0.0
10/07/2022,05:16:13,0.036,0.0,0.016,0.001
10/07/2022,05:17:13,0.037,0.0,0.017,0.001
10/07/2022,05:18:13,0.038,0.0,0.017,0.0
10/07/2022,05:19:13,0.039,0.0,0.018,0.001
10/07/2022,05:20:21,0.041,0.0,0.019,0.001
10/07/2022,05:21:14,0.042,0.0,0.019,0.0
10/07/2022,05:22:13,0.044,0.0,0.02,0.001
10/07/2022,05:23:13,0.044,0.0,0.021,0.001
10/07/2022,05:24:13,0.046,0.0,0.021,0.0
10/07/2022,05:25:13,0.047,0.0,0.022,0.001
10/07/2022,05:26:13,0.048,0.0,0.023,0.001
10/07/2022,05:27:13,0.049,0.0,0.024,0.001
10/07/2022,05:28:13,0.050,0.0,0.025,0.001
10/07/2022,05:29:14,0.052,0.0,0.026,0.001
10/07/2022,05:30:13,0.052,0.0,0.026,0.0
10/07/2022,05:31:13,0.054,0.0,0.027,0.001
10/07/2022,05:32:13,0.056,0.0,0.028,0.001
10/07/2022,05:33:14,0.057,0.0,0.029,0.001
10/07/2022,05:34:13,0.059,0.0,0.03,0.001
10/07/2022,05:35:13,0.060,0.0,0.031,0.001
10/07/2022,05:36:14,0.062,0.0,0.032,0.001
10/07/2022,05:37:13,0.063,0.0,0.033,0.001
10/07/2022,05:38:13,0.065,0.0,0.034,0.001
10/07/2022,05:39:13,0.066,0.0,0.035,0.001
10/07/2022,05:40:13,0.067,0.0,0.036,0.001
10/07/2022,05:41:13,0.069,0.0,0.038,0.002
10/07/2022,05:42:13,0.071,0.0,0.039,0.001
10/07/2022,05:43:22,0.074,0.0,0.04,0.001
10/07/2022,05:45:23,0.077,0.0,0.043,0.003
10/07/2022,05:46:13,0.078,0.0,0.044,0.001
10/07/2022,05:47:13,0.080,0.0,0.045,0.001
10/07/2022,05:48:14,0.081,0.0,0.046,0.001
10/07/2022,05:49:13,0.084,0.0,0.048,0.002
10/07/2022,05:50:13,0.086,0.0,0.049,0.001
10/07/2022,05:51:13,0.088,0.0,0.051,0.002
10/07/2022,05:52:13,0.090,0.0,0.052,0.001
10/07/2022,05:53:13,0.092,0.0,0.054,0.002
10/07/2022,05:54:14,0.093,0.0,0.055,0.001
10/07/2022,05:55:13,0.096,0.0,0.057,0.002
10/07/2022,05:56:13,0.098,0.0,0.058,0.001
10/07/2022,05:57:13,0.100,0.0,0.06,0.002
10/07/2022,05:58:14,0.102,0.0,0.062,0.002
10/07/2022,05:59:13,0.105,0.0,0.063,0.001
10/07/2022,06:00:13,0.107,0.0,0.065,0.002
10/07/2022,06:01:13,0.109,0.0,0.067,0.002
10/07/2022,06:02:13,0.113,0.0,0.069,0.002
10/07/2022,06:03:13,0.114,0.0,0.071,0.002
10/07/2022,06:04:21,0.117,0.0,0.073,0.002
10/07/2022,06:05:13,0.119,0.0,0.075,0.002
10/07/2022,06:06:13,0.122,0.0,0.077,0.002
10/07/2022,06:07:13,0.125,0.0,0.079,0.002
10/07/2022,06:08:13,0.127,0.0,0.081,0.002
10/07/2022,06:09:14,0.130,0.0,0.083,0.002
10/07/2022,06:10:13,0.133,0.0,0.085,0.002
10/07/2022,06:11:14,0.135,0.0,0.087,0.002
10/07/2022,06:12:13,0.138,0.0,0.09,0.003
10/07/2022,06:13:14,0.140,0.0,0.092,0.002
10/07/2022,06:14:13,0.143,0.0,0.094,0.002
10/07/2022,06:15:13,0.145,0.0,0.097,0.003
10/07/2022,06:16:13,0.149,0.0,0.099,0.002
10/07/2022,06:17:21,0.152,0.0,0.102,0.003
10/07/2022,06:18:13,0.156,0.0,0.104,0.002
10/07/2022,06:19:13,0.159,0.0,0.107,0.003
10/07/2022,06:20:13,0.161,0.0,0.11,0.003
10/07/2022,06:21:13,0.164,0.0,0.112,0.002
10/07/2022,06:22:13,0.167,0.0,0.115,0.003
10/07/2022,06:23:13,0.171,0.0,0.118,0.003
10/07/2022,06:24:13,0.174,0.0,0.121,0.003
10/07/2022,06:25:13,0.177,0.0,0.124,0.003
10/07/2022,06:26:13,0.182,0.0,0.127,0.003
10/07/2022,06:27:14,0.176,0.0,0.13,0.003
10/07/2022,06:28:13,0.145,0.0,0.132,0.002
10/07/2022,06:29:13,0.188,0.0,0.135,0.003
10/07/2022,06:30:13,0.191,0.0,0.138,0.003
10/07/2022,06:31:14,0.195,0.0,0.141,0.003
10/07/2022,06:32:14,0.199,0.0,0.144,0.003
10/07/2022,06:33:14,0.203,0.0,0.148,0.004
10/07/2022,06:34:14,0.206,0.0,0.151,0.003
10/07/2022,06:35:13,0.210,0.0,0.155,0.004
10/07/2022,06:36:21,0.214,0.0,0.158,0.003
10/07/2022,06:37:13,0.218,1.0,0.162,0.004
10/07/2022,06:38:13,0.221,1.0,0.165,0.003
10/07/2022,06:39:14,0.225,1.0,0.169,0.004
10/07/2022,06:40:13,0.229,1.0,0.173,0.004
10/07/2022,06:41:13,0.233,1.0,0.177,0.004
10/07/2022,06:42:14,0.238,1.0,0.181,0.004
10/07/2022,06:43:13,0.241,1.0,0.185,0.004
10/07/2022,06:44:13,0.246,1.0,0.188,0.003
10/07/2022,06:45:14,0.249,1.0,0.193,0.005
10/07/2022,06:46:14,0.253,1.0,0.197,0.004
10/07/2022,06:47:13,0.257,1.0,0.201,0.004
10/07/2022,06:48:13,0.262,1.0,0.206,0.005
10/07/2022,06:49:13,0.267,1.0,0.21,0.004
10/07/2022,06:50:14,0.271,1.0,0.214,0.004
10/07/2022,06:51:21,0.276,1.0,0.22,0.006
10/07/2022,06:52:13,0.280,1.0,0.224,0.004
10/07/2022,06:53:13,0.286,1.0,0.228,0.004
10/07/2022,06:54:13,0.290,1.0,0.233,0.005
10/07/2022,06:55:14,0.294,1.0,0.238,0.005
10/07/2022,06:56:13,0.299,1.0,0.243,0.005
10/07/2022,06:57:14,0.305,1.0,0.248,0.005
10/07/2022,06:58:13,0.308,1.0,0.253,0.005
10/07/2022,06:59:13,0.313,1.0,0.258,0.005
10/07/2022,07:00:13,0.319,1.0,0.264,0.006
10/07/2022,07:01:13,0.323,1.0,0.269,0.005
10/07/2022,07:02:13,0.328,1.0,0.274,0.005
10/07/2022,07:03:13,0.333,1.0,0.28,0.006
10/07/2022,07:04:22,0.339,1.0,0.286,0.006
10/07/2022,07:05:13,0.344,1.0,0.291,0.005
10/07/2022,07:06:13,0.350,1.0,0.297,0.006
10/07/2022,07:07:22,0.355,1.0,0.304,0.007
10/07/2022,07:08:13,0.359,1.0,0.309,0.005
10/07/2022,07:09:14,0.364,1.0,0.315,0.006
10/07/2022,07:10:22,0.371,1.0,0.322,0.007
10/07/2022,07:11:12,0.375,1.0,0.327,0.005
10/07/2022,07:12:13,0.380,1.0,0.333,0.006
10/07/2022,07:13:13,0.386,1.0,0.34,0.007
10/07/2022,07:14:14,0.392,1.0,0.346,0.006
10/07/2022,07:15:13,0.397,1.0,0.353,0.007
10/07/2022,07:16:13,0.403,1.0,0.359,0.006
10/07/2022,07:17:13,0.408,1.0,0.366,0.007
10/07/2022,07:18:14,0.416,1.0,0.373,0.007
10/07/2022,07:19:13,0.422,1.0,0.38,0.007
10/07/2022,07:20:14,0.426,1.0,0.387,0.007
10/07/2022,07:21:14,0.434,1.0,0.394,0.007
10/07/2022,07:22:13,0.438,1.0,0.401,0.007
10/07/2022,07:23:14,0.445,1.0,0.409,0.008
10/07/2022,07:24:13,0.450,1.0,0.416,0.007
10/07/2022,07:25:21,0.458,1.0,0.425,0.009
10/07/2022,07:26:14,0.463,1.0,0.432,0.007
10/07/2022,07:27:13,0.470,1.0,0.44,0.008
10/07/2022,07:28:14,0.476,1.0,0.447,0.007
10/07/2022,07:29:13,0.483,1.0,0.455,0.008
10/07/2022,07:30:13,0.489,1.0,0.463,0.008
10/07/2022,07:31:13,0.496,1.0,0.472,0.009
10/07/2022,07:32:13,0.502,1.0,0.48,0.008
10/07/2022,07:33:14,0.508,1.0,0.488,0.008
10/07/2022,07:34:13,0.515,1.0,0.497,0.009
10/07/2022,07:35:22,0.524,1.0,0.507,0.01
10/07/2022,07:37:14,0.535,1.0,0.523,0.016
10/07/2022,07:38:22,0.545,1.0,0.533,0.01
10/07/2022,07:39:13,0.551,1.0,0.541,0.008
10/07/2022,07:40:13,0.557,1.0,0.551,0.01
10/07/2022,07:41:22,0.565,1.0,0.561,0.01
10/07/2022,07:42:13,0.571,1.0,0.569,0.008
10/07/2022,07:43:13,0.578,1.0,0.579,0.01
10/07/2022,07:44:13,0.586,1.0,0.589,0.01
10/07/2022,07:45:14,0.594,1.0,0.599,0.01
10/07/2022,07:46:13,0.601,1.0,0.608,0.009
10/07/2022,07:47:13,0.608,1.0,0.618,0.01
10/07/2022,07:48:13,0.615,1.0,0.628,0.01
10/07/2022,07:49:14,0.623,1.0,0.639,0.011
10/07/2022,07:50:13,0.630,1.0,0.649,0.01
10/07/2022,07:51:13,0.639,1.0,0.66,0.011
10/07/2022,07:52:14,0.647,1.0,0.671,0.011
10/07/2022,07:53:13,0.655,2.0,0.681,0.01
10/07/2022,07:54:14,0.663,2.0,0.693,0.012
10/07/2022,07:55:14,0.668,2.0,0.704,0.011
10/07/2022,07:56:22,0.678,2.0,0.716,0.012
10/07/2022,07:57:12,0.687,2.0,0.726,0.01
10/07/2022,07:58:13,0.694,2.0,0.738,0.012
10/07/2022,07:59:14,0.702,2.0,0.749,0.011
10/07/2022,08:00:13,0.711,2.0,0.761,0.012
10/07/2022,08:01:13,0.718,2.0,0.773,0.012
10/07/2022,08:02:13,0.726,2.0,0.785,0.012
10/07/2022,08:03:13,0.737,2.0,0.797,0.012
10/07/2022,08:04:13,0.743,2.0,0.81,0.013
10/07/2022,08:05:14,0.754,2.0,0.822,0.012
10/07/2022,08:06:22,0.764,2.0,0.836,0.014
10/07/2022,08:08:14,0.779,2.0,0.86,0.024
10/07/2022,08:09:21,0.788,2.0,0.875,0.015
10/07/2022,08:10:14,0.796,2.0,0.887,0.012
10/07/2022,08:11:13,0.808,2.0,0.9,0.013
10/07/2022,08:12:22,0.816,2.0,0.915,0.015
10/07/2022,08:13:12,0.823,2.0,0.927,0.012
10/07/2022,08:14:14,0.832,2.0,0.941,0.014
10/07/2022,08:15:14,0.843,2.0,0.955,0.014
10/07/2022,08:16:14,0.850,2.0,0.969,0.014
10/07/2022,08:17:13,0.860,2.0,0.983,0.014
10/07/2022,08:18:14,0.869,2.0,0.998,0.015
10/07/2022,08:19:13,0.878,2.0,1.012,0.014
10/07/2022,08:20:14,0.887,2.0,1.027,0.015
10/07/2022,08:21:13,0.895,2.0,1.042,0.015
10/07/2022,08:22:22,0.908,2.0,1.059,0.017
10/07/2022,08:24:14,0.923,2.0,1.087,0.028
10/07/2022,08:25:13,0.933,2.0,1.103,0.016
10/07/2022,08:26:14,0.941,2.0,1.118,0.015
10/07/2022,08:27:13,0.950,2.0,1.134,0.016
10/07/2022,08:28:13,0.962,2.0,1.15,0.016
10/07/2022,08:29:14,0.972,2.0,1.166,0.016
10/07/2022,08:30:14,0.980,2.0,1.183,0.017
10/07/2022,08:31:14,0.990,2.0,1.199,0.016
10/07/2022,08:32:13,0.999,2.0,1.216,0.017
10/07/2022,08:33:13,1.006,2.0,1.232,0.016
10/07/2022,08:34:13,1.019,2.0,1.249,0.017
10/07/2022,08:35:13,1.027,2.0,1.266,0.017
10/07/2022,08:36:14,1.037,2.0,1.283,0.017
10/07/2022,08:37:14,1.045,2.0,1.301,0.018
10/07/2022,08:38:14,1.055,2.0,1.318,0.017
10/07/2022,08:39:13,1.065,2.0,1.336,0.018
10/07/2022,08:40:13,1.073,2.0,1.353,0.017
10/07/2022,08:41:13,1.083,2.0,1.372,0.019
10/07/2022,08:42:13,1.094,3.0,1.389,0.017
10/07/2022,08:43:14,1.105,3.0,1.408,0.019
10/07/2022,08:44:14,1.114,3.0,1.427,0.019
10/07/2022,08:45:13,1.124,3.0,1.445,0.018
10/07/2022,08:46:14,1.130,3.0,1.464,0.019
10/07/2022,08:47:13,1.141,3.0,1.483,0.019
10/07/2022,08:48:14,1.150,3.0,1.502,0.019
10/07/2022,08:49:13,1.161,3.0,1.521,0.019
10/07/2022,08:50:14,1.168,3.0,1.541,0.02
10/07/2022,08:51:13,1.175,3.0,1.56,0.019
10/07/2022,08:52:13,1.189,3.0,1.58,0.02
10/07/2022,08:53:14,1.198,3.0,1.6,0.02
10/07/2022,08:54:13,1.209,3.0,1.62,0.02
10/07/2022,08:55:21,1.218,3.0,1.643,0.023
10/07/2022,08:56:14,1.227,3.0,1.661,0.018
10/07/2022,08:57:14,1.236,3.0,1.681,0.02
10/07/2022,08:58:14,1.245,3.0,1.702,0.021
10/07/2022,08:59:14,1.256,3.0,1.723,0.021
10/07/2022,09:00:13,1.263,3.0,1.744,0.021
10/07/2022,09:01:13,1.271,3.0,1.765,0.021
10/07/2022,09:02:13,1.284,3.0,1.786,0.021
10/07/2022,09:03:14,1.292,3.0,1.808,0.022
10/07/2022,09:04:13,1.301,3.0,1.829,0.021
10/07/2022,09:05:13,1.311,3.0,1.851,0.022
10/07/2022,09:06:14,1.322,3.0,1.873,0.022
10/07/2022,09:07:22,1.332,3.0,1.898,0.025
10/07/2022,09:08:13,1.344,3.0,1.916,0.018
10/07/2022,09:09:14,1.353,3.0,1.94,0.024
10/07/2022,09:10:14,1.361,3.0,1.962,0.022
10/07/2022,09:11:14,1.371,3.0,1.985,0.023
10/07/2022,09:12:13,1.383,3.0,2.008,0.023
10/07/2022,09:13:21,1.397,3.0,2.034,0.026
10/07/2022,09:14:13,1.403,3.0,2.054,0.02
10/07/2022,09:15:13,1.412,3.0,2.078,0.024
10/07/2022,09:16:13,1.422,3.0,2.101,0.023
10/07/2022,09:17:14,1.430,3.0,2.125,0.024
10/07/2022,09:18:13,1.440,3.0,2.149,0.024
10/07/2022,09:19:14,1.454,3.0,2.173,0.024
10/07/2022,09:20:14,1.458,3.0,2.198,0.025
10/07/2022,09:21:13,1.469,3.0,2.221,0.023
10/07/2022,09:22:14,1.480,3.0,2.246,0.025
10/07/2022,09:23:13,1.494,3.0,2.271,0.025
10/07/2022,09:24:13,1.502,3.0,2.295,0.024
10/07/2022,09:25:22,1.512,3.0,2.325,0.03
10/07/2022,09:27:14,1.527,4.0,2.372,0.047
10/07/2022,09:28:15,1.534,4.0,2.397,0.025
10/07/2022,09:29:13,1.543,4.0,2.423,0.026
10/07/2022,09:30:13,1.554,4.0,2.448,0.025
10/07/2022,09:31:06,1.567,4.0,2.472,0.024
10/07/2022,09:32:14,1.579,4.0,2.501,0.029
10/07/2022,09:33:14,1.588,4.0,2.528,0.027
10/07/2022,09:34:14,1.596,4.0,2.554,0.026
10/07/2022,09:35:13,1.608,4.0,2.58,0.026
10/07/2022,09:36:13,1.618,4.0,2.608,0.028
10/07/2022,09:37:14,1.625,4.0,2.635,0.027
10/07/2022,09:38:13,1.630,4.0,2.662,0.027
10/07/2022,09:39:14,1.645,4.0,2.689,0.027
10/07/2022,09:40:13,1.655,4.0,2.717,0.028
10/07/2022,09:41:14,1.662,4.0,2.744,0.027
10/07/2022,09:42:13,1.673,4.0,2.772,0.028
10/07/2022,09:43:14,1.677,4.0,2.8,0.028
10/07/2022,09:44:13,1.687,4.0,2.828,0.028
10/07/2022,09:45:14,1.698,4.0,2.856,0.028
10/07/2022,09:46:22,1.706,4.0,2.889,0.033
10/07/2022,09:47:13,1.715,4.0,2.912,0.023
10/07/2022,09:48:13,1.724,4.0,2.942,0.03
10/07/2022,09:49:14,1.736,4.0,2.971,0.029
10/07/2022,09:50:14,1.742,4.0,3.0,0.029
10/07/2022,09:51:15,1.748,4.0,3.029,0.029
10/07/2022,09:52:13,1.761,4.0,3.058,0.029
10/07/2022,09:53:14,1.768,4.0,3.088,0.03
10/07/2022,09:54:14,1.779,4.0,3.117,0.029
10/07/2022,09:55:14,1.782,4.0,3.147,0.03
10/07/2022,09:56:14,1.795,4.0,3.177,0.03
10/07/2022,09:57:14,1.803,4.0,3.207,0.03
10/07/2022,09:58:14,1.812,4.0,3.237,0.03
10/07/2022,09:59:14,1.821,4.0,3.267,0.03
10/07/2022,10:00:14,1.831,4.0,3.297,0.03
10/07/2022,10:01:22,1.842,4.0,3.332,0.035
10/07/2022,10:02:13,1.848,4.0,3.358,0.026
10/07/2022,10:03:14,1.856,4.0,3.39,0.032
10/07/2022,10:04:13,1.864,4.0,3.421,0.031
10/07/2022,10:05:14,1.876,4.0,3.452,0.031
10/07/2022,10:06:13,1.878,4.0,3.483,0.031
10/07/2022,10:07:14,1.885,4.0,3.514,0.031
10/07/2022,10:08:13,1.897,4.0,3.546,0.032
10/07/2022,10:09:22,1.908,4.0,3.582,0.036
10/07/2022,10:10:13,1.915,4.0,3.608,0.026
10/07/2022,10:11:14,1.923,4.0,3.641,0.033
10/07/2022,10:12:20,1.935,4.0,3.677,0.036
10/07/2022,10:13:12,1.942,4.0,3.705,0.028
10/07/2022,10:14:13,1.949,4.0,3.738,0.033
10/07/2022,10:15:14,1.957,5.0,3.771,0.033
10/07/2022,10:16:14,1.963,5.0,3.803,0.032
10/07/2022,10:17:14,1.975,5.0,3.836,0.033